Regional Weather Roundup
Issued by NWS

Home | Current Version | Previous Version | Graphics & Text | Print | Product List | Glossary On
Versions: 1 2 3 4 5 6 7 8 9 10 11 12 13 14 15 16 17 18 19 20 21 22 23 24 25 26 27 28 29 30 31 32 33 34 35 36 37 38 39 40 41 42 43 44 45 46 47 48 49 50
000
ASUS43 KMPX 272301
RWRMN
WEATHER ROUNDUP FOR MINNESOTA
NATIONAL WEATHER SERVICE TWIN CITIES/CHANHASSEN MN
600 PM CDT THU APR 27 2017


NOTE: "FAIR" INDICATES FEW OR NO CLOUDS BELOW 12,000 FEET WITH NO
SIGNIFICANT WEATHER AND/OR OBSTRUCTIONS TO VISIBILITY. N/A MEANS
CURRENT SKY AND/OR WEATHER CONDITIONS ARE NOT AVAILABLE.

MNZ060>063-068>070-280000-
   Twin Cities Metro

CITY           SKY/WX    TMP DP  RH WIND       PRES   REMARKS
TWIN CITIES    CLOUDY    34  23  64 NW15      29.66R WCI  24
ST PAUL        CLOUDY    34  24  67 W13G22    29.67R WCI  25
CRYSTAL        CLOUDY    33  21  61 NW13      29.65R WCI  24
BLAINE         CLOUDY    34  25  69 NW14      29.65R WCI  24
LAKEVILLE      CLOUDY    34  28  80 NW12G17   29.66R WCI  25
EDEN PRAIRIE   CLOUDY    35  24  64 NW14      29.65R WCI  26
SOUTH ST PAUL  CLOUDY    34  24  67 NW12G18   29.66R WCI  26
LAKE ELMO      CLOUDY    32  27  80 NW14      29.66R WCI  22
$$
MNZ001>005-007-008-013>017-022>024-027-028-280000-
   Northwest Minnesota

CITY           SKY/WX    TMP DP  RH WIND       PRES   REMARKS
BEMIDJI        CLOUDY    28  24  83 NW13G18   29.62R WCI  18
HALLOCK        CLOUDY    39  32  75 N9        29.68R
ROSEAU         LGT SNOW  32  27  80 N10       29.65S WCI  24
WARROAD        FLURRIES  30  25  80 N12       29.65S WCI  21
THIEF RVR FALL CLOUDY    31  25  78 N10       29.68R WCI  22
CROOKSTON      CLOUDY    36  28  75 E8        29.68R
FOSSTON        CLOUDY    28  23  80 NW10      29.66R WCI  19
DETROIT LAKES  CLOUDY    32  28  86 N14       29.67R WCI  22
MOORHEAD       CLOUDY    37  28  70 NW8       29.69R
PARK RAPIDS    CLOUDY    32  20  61 NW14      29.62R WCI  22
MAHNOMEN       CLOUDY    31  25  80 N3        29.67R
$$
MNZ006-009>011-018-025>026-280000-
   North Central Minnesota

CITY           SKY/WX    TMP DP  RH WIND       PRES   REMARKS
BAUDETTE       CLOUDY    28  21  75 N12       29.61R WCI  18
FLAG ISLAND    CLOUDY    28  25  86 N16       29.63S WCI  17
INTL FALLS     CLOUDY    28  21  75 NW8       29.57R WCI  20
WASKISH        CLOUDY    28  21  74 N7        29.62R WCI  21
BIG FORK       CLOUDY    28  19  69 NW6       29.58R WCI  22
LONGVILLE      MIX PCPN  28  21  74 NW5       29.61R WCI  23
GRAND RAPIDS   CLOUDY    27  19  72 NW16      29.60R WCI  15
CRANE LAKE     CLOUDY    27  19  74 NW9       29.56S WCI  17
ORR            CLOUDY    27  18  69 NW10      29.53R WCI  17
COOK           CLOUDY    27  18  69 NW8       29.55R WCI  18
WALKER         CLOUDY    28  22  80 NW8       29.61R WCI  19
$$
MNZ012-019>021-037-280000-
   Northeast Minnesota

CITY           SKY/WX    TMP DP  RH WIND       PRES   REMARKS
DULUTH         CLOUDY    29  20  69 NW14      29.55R WCI  18
ELY            CLOUDY    27  18  69 W10       29.51R WCI  17
HIBBING        CLOUDY    27  19  72 NW17      29.56R WCI  14
EVELETH        CLOUDY    28  17  65 NW10G17   29.55R WCI  18
DULUTH HARBOR  CLOUDY    34  25  69 W14       29.59R WCI  24
TWO HARBORS    CLOUDY    32  21  64 W7        29.54R WCI  26
SILVER BAY     CLOUDY    28  21  74 W7        29.51R WCI  21
GRAND MARAIS     N/A     29  22  75 VRB7      29.51R WCI  22
G MARAIS ARPRT CLOUDY    21  16  79 CALM      29.44R
$$
MNZ029>031-032-039>041-046>048-054>057-064-280000-
   West Central Minnesota

CITY           SKY/WX    TMP DP  RH WIND       PRES   REMARKS
FERGUS FALLS   PTSUNNY   36  27  69 N12G25    29.69R
WHEATON        CLOUDY    37  27  65 NW13      29.72S
MORRIS         CLOUDY    36  27  69 NW17G24   29.69R
ALEXANDRIA     CLOUDY    32  23  69 NW16      29.67R WCI  21
ELBOW LAKE     CLOUDY    33  26  74 N16       29.69R WCI  23
WADENA         CLOUDY    30  25  80 NW10      29.64R WCI  21
GLENWOOD       CLOUDY    34  27  75 NW15      29.67R WCI  24
APPLETON       CLOUDY    37  27  65 NW10G20   29.70R
BENSON         CLOUDY    37  25  60 N14G20    29.71R
ORTONVILLE     CLOUDY    37  27  65 NW14      29.71R
MADISON        CLOUDY    41  28  60 NW16      29.71R
WILLMAR        CLOUDY    36  27  69 NW20G25   29.69R
$$
MNZ033>034-036-042>043-049>051-058-059-280000-
   Central Minnesota

CITY           SKY/WX    TMP DP  RH WIND       PRES   REMARKS
ST CLOUD       CLOUDY    32  24  72 NW13      29.65R WCI  22
SAUK CENTRE    CLOUDY    32  23  69 NW14      29.66R WCI  22
PAYNESVILLE    CLOUDY    33  26  74 NW9       29.67R WCI  25
AITKIN         CLOUDY    32  21  64 NW8       29.60R WCI  25
PINE RIVER     MIX PCPN  28  25  86 W7        29.66R WCI  21
BRAINERD       CLOUDY    30  23  75 NW7       29.63R WCI  23
STAPLES        CLOUDY    28  23  80 NW13      29.64R WCI  18
LONG PRAIRIE   CLOUDY    32  23  69 W12G22    29.66R WCI  23
LITTLE FALLS   CLOUDY    32  23  69 NW8       29.65R WCI  25
LITCHFIELD     CLOUDY    36  27  69 NW13      29.67R
BUFFALO        CLOUDY    33  24  70 W8G16     29.67R WCI  26
MAPLE LAKE     CLOUDY    33  27  76 NW9       29.67R WCI  26
HUTCHINSON     CLOUDY    35  28  74 W14G20    29.68R WCI  26
$$
MNZ037-044-045-052-053-280000-
   East Central Minnesota

CITY           SKY/WX    TMP DP  RH WIND       PRES   REMARKS
PRINCETON      CLOUDY    34  25  69 W13       29.65R WCI  25
MORA           CLOUDY    32  23  69 NW7G16    29.64R WCI  26
CAMBRIDGE      CLOUDY    34  23  64 W12G18    29.63R WCI  25
RUSH CITY      CLOUDY    32  23  70 NW7       29.64R WCI  25
MOOSE LAKE     CLOUDY    32  23  69 W7        29.58R WCI  26
HINCKLEY       CLOUDY    32  25  74 W7        29.62R WCI  26
CLOQUET        CLOUDY    28  19  69 W9        29.57R WCI  20
MCGREGOR       CLOUDY    30  23  74 NW13      29.60R WCI  20
$$
MNZ071>073-080-081-089-090-097-098-280000-
   Southwest Minnesota

CITY           SKY/WX    TMP DP  RH WIND       PRES   REMARKS
MONTEVIDEO     CLOUDY    36  27  69 N13       29.71R
GRANITE FALLS  CLOUDY    38  29  70 NW15      29.73R
CANBY          MOSUNNY   43  29  57 NW14G22   29.71R
MARSHALL       PTSUNNY   39  28  64 N16       29.70R
REDWOOD FALLS  CLOUDY    36  25  64 N12G21    29.70R
OLIVIA         CLOUDY    34  28  80 NW17      29.69R WCI  23
PIPESTONE      MOSUNNY   46  27  46 N14G20    29.67R
WINDOM         SUNNY     39  28  65 NW14G20   29.70R
WORTHINGTON    CLOUDY    41  31  67 NW12      29.70R
JACKSON        CLOUDY    39  30  70 NW16      29.70R
TRACY          CLOUDY    40  31  71 N14G21    29.70R
SLAYTON        PTSUNNY   41  32  69 N13G20    29.68R
$$
MNZ065>067-074>077-082>085-091>093-280000-
   South Central Minnesota

CITY           SKY/WX    TMP DP  RH WIND       PRES   REMARKS
MANKATO        CLOUDY    34  26  72 NW18G25   29.69R WCI  23
NEW ULM        CLOUDY    34  27  75 NW14      29.70R WCI  24
ST JAMES       CLOUDY    36  28  75 NW15G21   29.71R
FAIRMONT       CLOUDY    37  29  72 NW18      29.70R
GLENCOE        CLOUDY    35  29  79 NW14      29.67R WCI  26
FARIBAULT      CLOUDY    34  27  75 W15G22    29.67R WCI  24
OWATONNA       CLOUDY    34  27  75 W18       29.68R WCI  23
WASECA         CLOUDY    34  28  80 W18       29.70R WCI  23
ALBERT LEA     CLOUDY    34  27  75 W10G17    29.68R WCI  26
$$
MNZ078>079-086>088-094>096-280000-
   Southeast Minnesota

CITY           SKY/WX    TMP DP  RH WIND       PRES   REMARKS
ROCHESTER      CLOUDY    34  29  82 W17       29.66R WCI  23
RED WING       CLOUDY    37  23  56 W14G21    29.65R
STANTON        CLOUDY    35  29  76 W13G20    29.66R WCI  27
DODGE CENTER   CLOUDY    34  28  80 W16       29.66R WCI  23
WINONA           N/A     37  32  81 W12G17    29.67R
AUSTIN         CLOUDY    36  27  69 W16G22    29.67R
PRESTON        CLOUDY    34  29  81 W15       29.67R WCI  24
$$
ABBREVIATIONS USED IN REMARKS
   TC - TEMPERATURES IN CELSIUS
  WCI - WIND CHILL INDEX
   HX - HEAT INDEX
  VSB - VISIBILITY
$$



USA.gov is the U.S. government's official web portal to all federal, state and local government web resources and services.